Retour au catalogue

IRIDIUM 165

ActifCommunicationsPO
NORAD 43572·PAYLOAD·🇺🇸 United States

Lancé Jul 25, 2018 depuis Vandenberg Space Force Base

Loading…

Prochains Passages (prochaines 24 heures)

TLE

FraisSource: CelesTrak SupGP

Époque: Sep 14, 2026, 12:57 UTC

1 43572C 18061D   26257.53993056 -.00004081  00000+0 -14591-2 0  2572
2 43572  86.4013  19.4346 0002168  94.3575 355.1022 14.34220074    18

Suivez IRIDIUM 165 en temps réel avec AllMySat

Download on the App Store